Location: Hall+in+Tirol
(47.2830°N, 11.5170°E)
Time: 06:16:02
(UTC+01:00)

Amateur Radio Satellites - All Passes

Search period start: 28 March 2015 05:46
Search period end: 29 March 2015 06:46
Location: Hall+in+Tirol, 47.2830°N, 11.5170°E

Satellite Date Start Highest point End Downlink Frequencies (MHz)
Time Altitude Azimuth
PRISM 28 Mar 05:54:04 05:58:18 88° 77° (ENE) 06:02:34 437.425
CUBESAT XI-V 28 Mar 05:54:26 05:59:10 84° 255° (WSW) 06:03:55 437.345
Cubesat XI-IV 28 Mar 05:55:24 06:00:05 31° 94° (E) 06:04:47 437.490
CUTE-I 28 Mar 05:55:47 06:00:26 31° 94° (E) 06:05:08 437.470
STRAND 1 28 Mar 05:57:15 06:02:21 64° 71° (ENE) 06:07:28 437.568
AUBIESAT-1 28 Mar 05:58:24 05:59:33 11° 271° (W) 06:00:30 437.475
ISS 28 Mar 06:09:40 06:11:49 16° 223° (SW) 06:13:54 145.825
CUSAT 1 28 Mar 06:14:42 06:16:40 14° 68° (ENE) 06:19:05 437.405
O/OREOS (USA 219) 28 Mar 06:23:42 06:25:50 13° 319° (NW) 06:27:49 437.305
GONETS M04 28 Mar 06:27:44 06:36:37 86° 81° (E) 06:45:29
RS-15 28 Mar 06:44:24 06:51:32 18° 261° (W) 06:58:00 29.354- 29.394
DANDE 28 Mar 06:52:13 06:55:04 22° 73° (ENE) 06:58:39 436.750
AO-7 28 Mar 06:56:01 07:02:22 25° 312° (NW) 07:08:31 29.400- 29.500
VERMONT LUNAR 28 Mar 06:57:03 06:59:38 21° 168° (SSE) 07:02:15 437.305
JAS-2 28 Mar 07:19:38 07:23:43 15° 314° (NW) 07:27:25 435.910
PHONESAT 2.4 28 Mar 07:22:58 07:25:31 19° 164° (SSE) 07:28:07 2401.200-2431.200
Cubesat XI-IV 28 Mar 07:35:18 07:40:20 42° 293° (WNW) 07:45:17 437.490
CUTE-I 28 Mar 07:35:40 07:40:40 42° 293° (WNW) 07:45:37 437.470
CUBESAT XI-V 28 Mar 07:36:30 07:37:28 10° 276° (W) 07:38:09 437.345
STRAND 1 28 Mar 07:38:23 07:42:03 19° 271° (W) 07:45:35 437.568
BRITE-PL 28 Mar 07:47:02 07:50:00 19° 91° (E) 07:53:06 437.365/2234.400
CANX-2 28 Mar 07:49:54 07:51:51 13° 87° (E) 07:54:00 2200.000
CUSAT 1 28 Mar 07:55:44 07:59:35 62° 260° (W) 08:04:42 437.405
CUTE 1.7 + AOD 2 28 Mar 08:03:31 08:06:13 17° 89° (E) 08:09:04 437.475
TIGRISAT 28 Mar 08:23:45 08:24:53 11° 58° (ENE) 08:26:13 435.000
GONETS M04 28 Mar 08:25:55 08:32:30 23° 281° (W) 08:38:45
CINEMA 3 28 Mar 08:32:09 08:34:31 15° 89° (E) 08:37:06 145.822/145.860
VERMONT LUNAR 28 Mar 08:34:00 08:36:50 25° 184° (S) 08:39:39 437.305
AAUSAT CUBESAT 2 28 Mar 08:34:21 08:37:31 21° 91° (E) 08:40:46 437.432
SEEDS 28 Mar 08:34:39 08:38:21 28° 94° (E) 08:42:06 437.485
DANDE 28 Mar 08:34:59 08:38:21 32° 262° (W) 08:42:35 436.750
DOVE 4 28 Mar 08:38:59 08:42:44 30° 95° (E) 08:46:40 437.250
HO-68 28 Mar 08:41:36 08:48:30 47° 98° (E) 08:55:24 435.675
GOMX 1 28 Mar 08:41:52 08:45:55 45° 99° (E) 08:50:09 467.674
Oscar 11 28 Mar 08:47:29 08:49:49 14° 88° (E) 08:52:18 145.826/435.025
ANTELSAT 28 Mar 08:50:52 08:53:59 20° 63° (ENE) 08:57:13 437.575/2403.000
UWE-3 28 Mar 08:55:01 08:56:23 11° 86° (E) 08:57:59 435.000/436.395/437.385
CUBEBUG 2 28 Mar 08:55:38 08:57:56 14° 88° (E) 09:00:28 437.445
COMPASS 1 28 Mar 08:59:29 09:03:33 42° 97° (E) 09:07:36 437.405
PHONESAT 2.4 28 Mar 09:00:16 09:03:19 27° 180° (S) 09:06:23 2401.200-2431.200
ZACube-1 28 Mar 09:07:07 09:08:55 13° 87° (E) 09:10:57 437.345
QB50P1 28 Mar 09:09:49 09:12:32 17° 63° (ENE) 09:15:22 145.935-145.965
DUCHIFAT 1 28 Mar 09:12:34 09:15:22 18° 63° (ENE) 09:18:17 145.980
BEESAT 2 28 Mar 09:22:14 09:22:55 10° 110° (ESE) 09:23:49 435.950
QB50P2 28 Mar 09:23:20 09:26:39 23° 65° (ENE) 09:30:03 145.880/145.840
CANX-2 28 Mar 09:24:02 09:28:21 70° 286° (WNW) 09:32:39 2200.000
BRITE-PL 28 Mar 09:24:52 09:28:49 43° 289° (WNW) 09:32:52 437.365/2234.400
CUTE 1.7 + AOD 2 28 Mar 09:38:19 09:42:33 54° 288° (WNW) 09:46:45 437.475
UNISAT 6 28 Mar 09:45:41 09:49:55 68° 74° (ENE) 09:54:15 437.425
POPSAT HIP 1 28 Mar 09:51:44 09:55:43 42° 70° (ENE) 09:59:44 437.405
UKube-1 28 Mar 09:52:26 09:56:00 25° 94° (E) 09:59:35 .
TIGRISAT 28 Mar 09:56:44 10:00:59 86° 76° (ENE) 10:05:20 435.000
BEESAT 3 28 Mar 09:58:11 10:01:40 28° 117° (ESE) 10:05:15 437.485
DELFI C3 28 Mar 09:58:55 10:03:00 59° 100° (E) 10:07:03 145.870
BUGSAT 1 28 Mar 10:00:00 10:03:50 38° 70° (ENE) 10:07:41 437.445
DX 1 28 Mar 10:00:13 10:04:04 31° 96° (E) 10:07:57 434.975-435.025
NANOSAT C BR1 28 Mar 10:02:54 10:07:01 55° 72° (ENE) 10:11:09 145.865
POLYITAN 1 28 Mar 10:05:34 10:09:43 60° 73° (ENE) 10:13:53 437.675
CINEMA 3 28 Mar 10:07:54 10:12:12 64° 286° (WNW) 10:16:39 145.822/145.860
AAUSAT CUBESAT 2 28 Mar 10:09:21 10:13:22 42° 290° (WNW) 10:17:21 437.432
HUMSAT D 28 Mar 10:10:02 10:13:40 28° 94° (E) 10:17:22 437.325/437.525
SEEDS 28 Mar 10:10:22 10:14:11 31° 292° (WNW) 10:17:57 437.485
VERMONT LUNAR 28 Mar 10:12:02 10:13:57 14° 200° (SSW) 10:15:50 437.305
DOVE 4 28 Mar 10:16:48 10:20:31 30° 292° (WNW) 10:24:20 437.250
GOMX 1 28 Mar 10:20:46 10:23:52 20° 295° (WNW) 10:26:58 467.674
Oscar 11 28 Mar 10:22:10 10:26:30 64° 287° (WNW) 10:30:50 145.826/435.025
AIST 2 28 Mar 10:22:28 10:25:09 17° 112° (ESE) 10:27:57 435.215
ANTELSAT 28 Mar 10:26:24 10:30:31 46° 261° (W) 10:34:42 437.575/2403.000
UWE-3 28 Mar 10:29:11 10:33:33 82° 285° (WNW) 10:38:02 435.000/436.395/437.385
FUNcube-1 28 Mar 10:29:14 10:33:36 82° 102° (ESE) 10:38:03 145.935
HO-68 28 Mar 10:29:31 10:36:12 42° 298° (WNW) 10:42:48 435.675
CUBEBUG 2 28 Mar 10:30:48 10:35:08 66° 286° (WNW) 10:39:36 437.445
VELOX 1 28 Mar 10:33:33 10:37:28 31° 95° (E) 10:41:24 145.980
COMPASS 1 28 Mar 10:35:43 10:39:01 22° 295° (WNW) 10:42:15 437.405
AISAT 28 Mar 10:37:25 10:41:27 35° 97° (E) 10:45:30 437.250
PHONESAT 2.4 28 Mar 10:38:33 10:41:06 19° 197° (SSW) 10:43:39 2401.200-2431.200
CUBEBUG 1 28 Mar 10:39:09 10:42:00 17° 90° (E) 10:44:57 437.445
ZACube-1 28 Mar 10:41:31 10:45:52 75° 285° (WNW) 10:50:18 437.345
QB50P1 28 Mar 10:43:55 10:48:04 55° 260° (W) 10:52:13 145.935-145.965
DUCHIFAT 1 28 Mar 10:46:46 10:50:53 52° 260° (W) 10:55:00 145.980
Oscar 19 28 Mar 10:53:46 10:54:45 11° 53° (NE) 10:55:58 437.125/150
BEESAT 2 28 Mar 10:56:18 11:00:27 86° 127° (SE) 11:04:39 435.950
QB50P2 28 Mar 10:58:26 11:02:24 38° 263° (W) 11:06:22 145.880/145.840
ESTCUBE 1 28 Mar 11:01:27 11:05:31 32° 95° (E) 11:09:36 437.505/2401.250
50 SAT 28 Mar 11:14:34 11:18:37 89° 81° (E) 11:22:41 437.505
UNISAT 6 28 Mar 11:25:12 11:27:19 13° 273° (W) 11:29:15 437.425
UKube-1 28 Mar 11:28:16 11:32:16 36° 292° (WNW) 11:36:13 .
POPSAT HIP 1 28 Mar 11:28:38 11:31:50 20° 268° (W) 11:34:57 437.405
YUBILEINY 28 Mar 11:29:01 11:32:07 13° 72° (ENE) 11:35:51 435.215
DELFI C3 28 Mar 11:35:15 11:37:47 16° 298° (WNW) 11:40:11 145.870
BEESAT 3 28 Mar 11:35:44 11:39:38 39° 316° (NW) 11:43:33 437.485
BUGSAT 1 28 Mar 11:36:10 11:39:29 22° 267° (W) 11:42:42 437.445
DX 1 28 Mar 11:36:30 11:40:18 30° 294° (WNW) 11:44:02 434.975-435.025
TIGRISAT 28 Mar 11:37:58 11:38:31 10° 275° (W) 11:38:47 435.000
NANOSAT C BR1 28 Mar 11:40:37 11:43:16 16° 271° (W) 11:45:47 145.865
POLYITAN 1 28 Mar 11:43:41 11:46:06 14° 271° (W) 11:48:23 437.675
HUMSAT D 28 Mar 11:45:41 11:49:28 31° 292° (WNW) 11:53:14 437.325/437.525
ITAMSAT 1 28 Mar 11:54:17 11:56:37 13° 55° (NE) 11:59:11 435.822/435.867
AIST 2 28 Mar 11:59:03 12:03:19 66° 310° (NW) 12:07:37 435.215
FUNcube-1 28 Mar 12:07:19 12:09:26 13° 300° (WNW) 12:11:24 145.935
UWE-3 28 Mar 12:08:11 12:09:29 11° 301° (WNW) 12:10:36 435.000/436.395/437.385
VELOX 1 28 Mar 12:10:09 12:14:01 30° 293° (WNW) 12:17:51 145.980
AISAT 28 Mar 12:14:13 12:17:59 27° 294° (WNW) 12:21:40 437.250
CUBEBUG 1 28 Mar 12:14:30 12:18:44 52° 289° (WNW) 12:22:56 437.445
HO-68 28 Mar 12:20:27 12:22:12 11° 320° (NW) 12:23:35 435.675
ZACube-1 28 Mar 12:21:13 12:21:34 10° 302° (WNW) 12:21:43 437.345
TISAT 1 28 Mar 12:24:55 12:28:59 48° 99° (E) 12:33:04 437.305
AO-7 28 Mar 12:25:49 12:29:22 14° 36° (NE) 12:33:15 29.400- 29.500
Oscar 19 28 Mar 12:28:10 12:33:11 62° 72° (ENE) 12:38:17 437.125/150
SPROUT 28 Mar 12:29:29 12:33:46 65° 101° (E) 12:38:01 437.525
SWISSCUBE 28 Mar 12:30:03 12:31:26 11° 85° (E) 12:33:06 437.505
Gurwin Techsat 1B 28 Mar 12:32:26 12:36:22 22° 61° (ENE) 12:40:26 435.225
BEESAT 28 Mar 12:33:20 12:34:41 11° 85° (E) 12:36:19 436.000
BEESAT 2 28 Mar 12:36:11 12:39:10 18° 327° (NNW) 12:42:07 435.950
ESTCUBE 1 28 Mar 12:38:24 12:42:23 30° 293° (WNW) 12:46:17 437.505/2401.250
50 SAT 28 Mar 12:51:55 12:52:58 11° 301° (WNW) 12:53:50 437.505
O/OREOS (USA 219) 28 Mar 13:08:39 13:13:06 48° 59° (ENE) 13:17:29 437.305
ITUPSAT 1 28 Mar 13:17:06 13:21:16 29° 94° (E) 13:25:28 437.325
BEESAT 3 28 Mar 13:17:38 13:18:50 11° 338° (NNW) 13:19:58 437.485
YUBILEINY 28 Mar 13:18:39 13:27:14 62° 92° (E) 13:35:55 435.215
ITAMSAT 1 28 Mar 13:30:08 13:35:21 76° 73° (ENE) 13:40:36 435.822/435.867
AIST 2 28 Mar 13:40:07 13:42:45 15° 331° (NNW) 13:45:20 435.215
PCSat 28 Mar 13:47:34 13:51:19 20° 108° (ESE) 13:55:14 145.827
TISAT 1 28 Mar 14:01:29 14:04:31 19° 297° (WNW) 14:07:25 437.305
JAS-2 28 Mar 14:03:25 14:09:04 27° 56° (NE) 14:15:16 435.910
SWISSCUBE 28 Mar 14:05:18 14:10:08 88° 104° (ESE) 14:14:55 437.505
SPROUT 28 Mar 14:06:50 14:09:25 15° 299° (WNW) 14:11:53 437.525
BEESAT 28 Mar 14:08:31 14:13:22 88° 104° (ESE) 14:18:10 436.000
Oscar 19 28 Mar 14:09:20 14:13:03 19° 271° (W) 14:16:38 437.125/150
Gurwin Techsat 1B 28 Mar 14:10:41 14:15:57 63° 258° (WSW) 14:21:16 435.225
AO-7 28 Mar 14:12:32 14:20:13 45° 59° (ENE) 14:28:00 29.400- 29.500
HORYU 2 28 Mar 14:17:23 14:21:31 41° 69° (ENE) 14:25:44 437.375
KKS-1 28 Mar 14:40:01 14:44:10 38° 97° (E) 14:48:21 437.445
O/OREOS (USA 219) 28 Mar 14:48:45 14:52:14 21° 257° (WSW) 14:55:34 437.305
AIST 1 28 Mar 14:51:19 14:55:39 67° 79° (ENE) 14:59:55
ITUPSAT 1 28 Mar 14:54:49 14:59:16 37° 293° (WNW) 15:03:38 437.325
ITAMSAT 1 28 Mar 15:12:15 15:15:33 16° 273° (W) 15:18:38 435.822/435.867
STARS 28 Mar 15:15:15 15:19:36 57° 101° (E) 15:23:56 437.465
YUBILEINY 28 Mar 15:16:42 15:24:41 35° 295° (WNW) 15:32:35 435.215
PCSat 28 Mar 15:28:49 15:34:14 72° 306° (NW) 15:39:42 145.827
Cubesat XI-IV 28 Mar 15:44:25 15:46:28 12° 54° (NE) 15:48:46 437.490
CUTE-I 28 Mar 15:44:42 15:46:42 12° 54° (NE) 15:48:56 437.470
SWISSCUBE 28 Mar 15:44:47 15:47:23 14° 302° (WNW) 15:49:48 437.505
JAS-2 28 Mar 15:46:24 15:53:20 80° 257° (WSW) 16:01:04 435.910
BEESAT 28 Mar 15:47:59 15:50:36 14° 302° (WNW) 15:53:02 436.000
HORYU 2 28 Mar 15:54:47 15:58:23 23° 267° (W) 16:01:54 437.375
AO-7 28 Mar 16:04:59 16:13:02 50° 260° (W) 16:21:02 29.400- 29.500
MOZHAYETS 4 28 Mar 16:05:28 16:08:56 21° 90° (E) 16:12:30
KKS-1 28 Mar 16:16:59 16:20:40 25° 295° (WNW) 16:24:18 437.445
M-CUBED/EXP-1 PRIME 28 Mar 16:23:40 16:25:01 11° 89° (E) 16:26:39 437.505
AIST 1 28 Mar 16:30:47 16:32:47 13° 276° (W) 16:34:36
BEESAT 3 28 Mar 16:37:01 16:38:49 13° 25° (NNE) 16:40:41 437.485
STARS 28 Mar 16:52:39 16:55:42 18° 298° (WNW) 16:58:37 437.465
RS-15 28 Mar 16:52:54 16:56:49 13° 96° (E) 17:01:41 29.354- 29.394
AIST 2 28 Mar 17:03:04 17:03:49 10° 19° (NNE) 17:04:41 435.215
PCSat 28 Mar 17:14:48 17:18:40 19° 328° (NNW) 17:22:27 145.827
Cubesat XI-IV 28 Mar 17:20:23 17:25:42 68° 72° (ENE) 17:31:05 437.490
CUTE-I 28 Mar 17:20:36 17:25:55 68° 72° (ENE) 17:31:16 437.470
HO-68 28 Mar 17:31:16 17:33:54 13° 43° (NE) 17:36:51 435.675
AUBIESAT-1 28 Mar 17:32:38 17:37:16 44° 103° (ESE) 17:41:51 437.475
JAS-2 28 Mar 17:35:20 17:39:53 17° 280° (W) 17:44:17 435.910
BEESAT 2 28 Mar 17:35:28 17:38:51 24° 37° (NE) 17:42:16 435.950
GONETS M04 28 Mar 17:39:26 17:45:06 21° 77° (ENE) 17:51:11
MOZHAYETS 4 28 Mar 17:41:58 17:46:29 49° 289° (WNW) 17:50:56
CUBESAT XI-V 28 Mar 17:48:57 17:52:17 20° 90° (E) 17:55:44 437.345
M-CUBED/EXP-1 PRIME 28 Mar 17:55:50 18:00:43 80° 107° (ESE) 18:05:33 437.505
STRAND 1 28 Mar 18:05:48 18:08:58 17° 88° (E) 18:12:18 437.568
BEESAT 3 28 Mar 18:13:49 18:17:52 49° 47° (NE) 18:21:50 437.485
AIST 2 28 Mar 18:39:50 18:43:44 33° 42° (NE) 18:47:36 435.215
CANX-2 28 Mar 18:46:16 18:48:40 15° 62° (ENE) 18:51:13 2200.000
RS-15 28 Mar 18:56:24 19:06:56 60° 117° (ESE) 19:17:46 29.354- 29.394
CUTE 1.7 + AOD 2 28 Mar 18:59:48 19:02:42 19° 64° (ENE) 19:05:45 437.475
SO-50 28 Mar 19:00:42 19:05:15 56° 122° (ESE) 19:10:00 436.795
BRITE-PL 28 Mar 19:00:46 19:04:56 34° 69° (ENE) 19:08:55 437.365/2234.400
Cubesat XI-IV 28 Mar 19:02:34 19:06:24 19° 271° (W) 19:10:03 437.490
CUTE-I 28 Mar 19:02:44 19:06:34 19° 271° (W) 19:10:15 437.470
AUBIESAT-1 28 Mar 19:07:45 19:11:54 28° 300° (WNW) 19:15:57 437.475
PRISM 28 Mar 19:09:02 19:13:16 87° 286° (WNW) 19:17:26 437.425
BEESAT 2 28 Mar 19:13:14 19:17:19 56° 238° (WSW) 19:21:19 435.950
HO-68 28 Mar 19:13:18 19:20:05 49° 64° (ENE) 19:26:58 435.675
CUBESAT XI-V 28 Mar 19:25:34 19:30:06 51° 289° (WNW) 19:34:33 437.345
AAUSAT CUBESAT 2 28 Mar 19:28:36 19:31:48 22° 65° (ENE) 19:35:05 437.432
SEEDS 28 Mar 19:29:57 19:33:37 30° 68° (ENE) 19:37:22 437.485
M-CUBED/EXP-1 PRIME 28 Mar 19:31:47 19:35:04 18° 306° (NW) 19:38:13 437.505
GONETS M04 28 Mar 19:32:06 19:40:49 88° 98° (E) 19:49:39
CINEMA 3 28 Mar 19:37:25 19:40:20 19° 64° (ENE) 19:43:20 145.822/145.860
STRAND 1 28 Mar 19:43:40 19:48:47 71° 287° (WNW) 19:53:52 437.568
Oscar 11 28 Mar 19:45:28 19:48:19 18° 63° (ENE) 19:51:17 145.826/435.025
DOVE 4 28 Mar 19:47:58 19:52:04 43° 71° (ENE) 19:56:03 437.250
BEESAT 3 28 Mar 19:52:29 19:55:39 21° 245° (WSW) 19:58:42 437.485
GOMX 1 28 Mar 19:53:15 19:57:43 72° 75° (ENE) 20:01:58 467.674
COMPASS 1 28 Mar 19:53:51 19:57:48 43° 71° (ENE) 20:01:50 437.405
FUNcube-1 28 Mar 19:55:23 19:56:38 11° 59° (ENE) 19:58:05 145.935
UWE-3 28 Mar 19:55:35 19:57:42 14° 61° (ENE) 19:59:59 435.000/436.395/437.385
CUBEBUG 2 28 Mar 19:57:30 20:00:11 17° 63° (ENE) 20:02:59 437.445
ZACube-1 28 Mar 20:06:39 20:08:56 15° 62° (ENE) 20:11:23 437.345
DANDE 28 Mar 20:11:16 20:12:49 14° 95° (E) 20:14:22 436.750
AIST 2 28 Mar 20:18:26 20:22:22 36° 242° (WSW) 20:26:13 435.215
CANX-2 28 Mar 20:19:57 20:24:10 65° 260° (W) 20:28:25 2200.000
CUTE 1.7 + AOD 2 28 Mar 20:34:11 20:38:19 50° 261° (W) 20:42:30 437.475
BRITE-PL 28 Mar 20:39:28 20:43:33 28° 265° (W) 20:47:21 437.365/2234.400
SO-50 28 Mar 20:41:59 20:46:07 29° 323° (NW) 20:50:21 436.795
PRISM 28 Mar 20:46:49 20:48:08 11° 302° (WNW) 20:49:13 437.425
PCSat 28 Mar 20:48:14 20:50:27 12° 20° (NNE) 20:52:45 145.827
DELFI C3 28 Mar 20:49:36 20:53:35 55° 73° (ENE) 20:57:37 145.870
UKube-1 28 Mar 20:50:20 20:54:10 32° 67° (ENE) 20:58:05 .
DX 1 28 Mar 20:58:44 21:02:49 41° 69° (ENE) 21:06:57 434.975-435.025
HO-68 28 Mar 21:01:21 21:08:00 39° 264° (W) 21:14:38 435.675
AAUSAT CUBESAT 2 28 Mar 21:03:16 21:07:14 40° 263° (W) 21:11:13 437.432
HUMSAT D 28 Mar 21:05:16 21:08:47 29° 68° (ENE) 21:12:24 437.325/437.525
SEEDS 28 Mar 21:05:44 21:09:26 28° 266° (W) 21:13:07 437.485
RS-15 28 Mar 21:09:03 21:19:42 53° 324° (NW) 21:30:37 29.354- 29.394
CUSAT 1 28 Mar 21:10:22 21:13:06 48° 283° (WNW) 21:15:39 437.405
CINEMA 3 28 Mar 21:13:15 21:17:19 46° 261° (W) 21:21:20 145.822/145.860
Oscar 11 28 Mar 21:19:53 21:24:09 56° 261° (W) 21:28:25 145.826/435.025
STRAND 1 28 Mar 21:25:07 21:27:11 12° 306° (NW) 21:29:01 437.568
DOVE 4 28 Mar 21:26:54 21:30:06 20° 268° (W) 21:33:09 437.250
FUNcube-1 28 Mar 21:28:15 21:32:24 87° 254° (WSW) 21:36:36 145.935
UWE-3 28 Mar 21:29:40 21:33:47 67° 258° (WSW) 21:37:58 435.000/436.395/437.385
COMPASS 1 28 Mar 21:30:38 21:33:46 20° 269° (W) 21:36:50 437.405
GONETS M04 28 Mar 21:32:10 21:39:03 24° 303° (WNW) 21:45:45
CUBEBUG 2 28 Mar 21:32:30 21:36:34 52° 261° (W) 21:40:39 437.445
VELOX 1 28 Mar 21:34:10 21:38:20 42° 69° (ENE) 21:42:33 145.980
GOMX 1 28 Mar 21:34:25 21:36:25 12° 272° (W) 21:38:10 467.674
UNISAT 6 28 Mar 21:36:16 21:37:58 12° 86° (E) 21:39:55 437.425
AISAT 28 Mar 21:38:16 21:42:31 47° 70° (ENE) 21:46:48 437.250
CUBEBUG 1 28 Mar 21:38:20 21:41:47 23° 65° (ENE) 21:45:17 437.445
ZACube-1 28 Mar 21:40:47 21:44:53 63° 259° (W) 21:49:03 437.345
TIGRISAT 28 Mar 21:46:22 21:48:54 15° 88° (E) 21:51:38 435.000
DANDE 28 Mar 21:53:49 21:56:01 19° 288° (WNW) 21:58:00 436.750
50 SAT 28 Mar 22:03:35 22:07:30 82° 77° (ENE) 22:11:28 437.505
ESTCUBE 1 28 Mar 22:04:01 22:08:20 44° 70° (ENE) 22:12:42 437.505/2401.250
ANTELSAT 28 Mar 22:15:04 22:19:01 29° 94° (E) 22:23:05 437.575/2403.000
SO-50 28 Mar 22:26:28 22:28:17 12° 347° (NNW) 22:30:03 436.795
UKube-1 28 Mar 22:26:35 22:30:22 28° 265° (W) 22:34:06 .
QB50P1 28 Mar 22:26:43 22:29:43 19° 91° (E) 22:32:48 145.935-145.965
DELFI C3 28 Mar 22:26:47 22:29:11 15° 272° (W) 22:31:28 145.870
DUCHIFAT 1 28 Mar 22:29:10 22:32:13 20° 91° (E) 22:35:21 145.980
PCSat 28 Mar 22:30:33 22:35:33 36° 44° (NE) 22:40:34 145.827
DX 1 28 Mar 22:35:47 22:39:16 22° 267° (W) 22:42:41 434.975-435.025
QB50P2 28 Mar 22:40:44 22:44:19 27° 94° (E) 22:47:58 145.880/145.840
HUMSAT D 28 Mar 22:41:00 22:44:34 28° 266° (W) 22:48:07 437.325/437.525
ISS 28 Mar 22:49:52 22:52:39 27° 142° (SE) 22:55:28 145.825
POPSAT HIP 1 28 Mar 23:09:26 23:13:34 51° 100° (E) 23:17:42 437.405
UNISAT 6 28 Mar 23:10:51 23:15:25 83° 285° (WNW) 23:20:04 437.425
VELOX 1 28 Mar 23:11:33 23:15:07 23° 267° (W) 23:18:36 145.980
CUBEBUG 1 28 Mar 23:13:44 23:17:57 42° 262° (W) 23:22:08 437.445
BUGSAT 1 28 Mar 23:14:24 23:18:14 40° 98° (E) 23:22:03 437.445
AISAT 28 Mar 23:16:03 23:19:25 20° 269° (W) 23:22:40 437.250
TISAT 1 28 Mar 23:20:06 23:24:14 55° 72° (ENE) 23:28:22 437.305
NANOSAT C BR1 28 Mar 23:20:27 23:24:40 67° 102° (ESE) 23:28:52 145.865
TIGRISAT 28 Mar 23:21:39 23:26:10 67° 286° (WNW) 23:30:45 435.000
POLYITAN 1 28 Mar 23:23:42 23:27:58 74° 103° (ESE) 23:32:13 437.675
YUBILEINY 28 Mar 23:24:58 23:32:55 36° 65° (ENE) 23:40:55 435.215
RS-15 28 Mar 23:25:36 23:35:15 32° 356° (N) 23:45:13 29.354- 29.394
SPROUT 28 Mar 23:26:34 23:30:51 75° 75° (ENE) 23:35:09 437.525
SWISSCUBE 28 Mar 23:38:48 23:42:17 21° 62° (ENE) 23:45:53 437.505
ESTCUBE 1 28 Mar 23:41:50 23:45:27 22° 268° (W) 23:48:59 437.505/2401.250
BEESAT 28 Mar 23:41:59 23:45:26 21° 62° (ENE) 23:49:00 436.000
ANTELSAT 28 Mar 23:51:43 23:55:51 35° 292° (WNW) 00:00:02 437.575/2403.000
QB50P1 29 Mar 00:01:48 00:05:52 45° 289° (WNW) 00:09:54 145.935-145.965
DUCHIFAT 1 29 Mar 00:04:17 00:08:18 43° 290° (WNW) 00:12:18 145.980
SO-50 29 Mar 00:09:25 00:10:59 11° 11° (NNE) 00:12:38 436.795
PCSat 29 Mar 00:13:57 00:19:07 45° 245° (WSW) 00:24:14 145.827
QB50P2 29 Mar 00:16:29 00:20:17 32° 292° (WNW) 00:24:04 145.880/145.840
ISS 29 Mar 00:25:39 00:28:53 64° 340° (NNW) 00:32:08 145.825
ITUPSAT 1 29 Mar 00:26:49 00:31:26 48° 69° (ENE) 00:36:06 437.325
Oscar 19 29 Mar 00:37:33 00:40:49 17° 88° (E) 00:44:17 437.125/150
STARS 29 Mar 00:43:14 00:43:46 10° 57° (ENE) 00:44:30 437.465
POPSAT HIP 1 29 Mar 00:46:11 00:49:09 18° 297° (WNW) 00:52:00 437.405
UNISAT 6 29 Mar 00:49:45 00:51:35 12° 302° (WNW) 00:53:13 437.425
BUGSAT 1 29 Mar 00:50:28 00:53:30 20° 296° (WNW) 00:56:27 437.445
NANOSAT C BR1 29 Mar 00:57:39 01:00:04 15° 299° (WNW) 01:02:22 145.865
TISAT 1 29 Mar 00:57:47 01:00:26 16° 271° (W) 01:02:56 437.305
POLYITAN 1 29 Mar 01:01:10 01:03:24 14° 300° (WNW) 01:05:28 437.675
SPROUT 29 Mar 01:05:45 01:07:33 12° 274° (W) 01:09:09 437.525
SWISSCUBE 29 Mar 01:15:03 01:19:47 57° 259° (W) 01:24:34 437.505
BEESAT 29 Mar 01:18:11 01:22:55 58° 260° (W) 01:27:41 436.000
YUBILEINY 29 Mar 01:21:39 01:30:18 60° 268° (W) 01:38:49 435.215
ITAMSAT 1 29 Mar 01:40:38 01:44:27 21° 90° (E) 01:48:24 435.822/435.867
RS-15 29 Mar 01:40:41 01:51:17 44° 29° (NNE) 03:02:25 29.354- 29.394
KKS-1 29 Mar 01:41:09 01:45:26 52° 71° (ENE) 01:49:47 437.445
SO-50 29 Mar 01:49:06 01:53:14 26° 35° (NE) 01:57:26 436.795
ISS 29 Mar 03:02:35 03:05:38 36° 359° (N) 03:08:41 145.825
ITUPSAT 1 29 Mar 03:05:46 03:09:37 23° 268° (W) 03:13:23 437.325
STARS 29 Mar 03:15:09 03:19:32 75° 74° (ENE) 03:23:55 437.465
Oscar 19 29 Mar 03:15:37 03:20:47 71° 288° (WNW) 03:25:56 437.125/150
Gurwin Techsat 1B 29 Mar 03:23:42 03:28:44 41° 97° (E) 03:33:45 435.225
AUBIESAT-1 29 Mar 03:51:49 03:53:46 13° 51° (NE) 03:55:56 437.475
JAS-2 29 Mar 03:54:23 03:59:02 17° 80° (E) 04:03:52 435.910
MOZHAYETS 4 29 Mar 04:10:24 04:14:20 29° 66° (ENE) 04:18:21
M-CUBED/EXP-1 PRIME 29 Mar 04:14:02 04:17:12 22° 56° (ENE) 04:20:39 437.505
ITAMSAT 1 29 Mar 04:19:17 04:24:24 58° 290° (WNW) 04:29:28 435.822/435.867
KKS-1 29 Mar 04:19:18 04:22:27 18° 270° (W) 04:25:28 437.445
YUBILEINY 29 Mar 04:22:00 04:25:21 12° 289° (WNW) 04:28:04 435.215
AIST 1 29 Mar 04:24:11 04:28:08 33° 91° (E) 04:32:07
O/OREOS (USA 219) 29 Mar 04:24:21 04:28:19 30° 106° (ESE) 04:32:21 437.305
SO-50 29 Mar 04:29:19 04:34:15 70° 236° (WSW) 04:39:10 436.795
ISS 29 Mar 04:39:09 04:42:23 62° 20° (NNE) 04:45:36 145.825
HORYU 2 29 Mar 04:41:45 04:46:11 53° 100° (E) 04:50:37 437.375
GONETS M04 29 Mar 04:43:52 04:47:25 13° 45° (NE) 04:51:29
RS-15 29 Mar 04:53:31 05:04:59 82° 235° (SW) 05:16:57 29.354- 29.394
STARS 29 Mar 04:54:38 04:56:37 12° 273° (W) 04:58:23 437.465
Oscar 19 29 Mar 04:57:11 04:59:19 12° 305° (NW) 05:01:15 437.125/150
AO-7 29 Mar 05:02:28 05:10:24 48° 100° (E) 05:18:23 29.400- 29.500
Gurwin Techsat 1B 29 Mar 05:03:55 05:08:37 32° 295° (WNW) 05:13:14 435.225
AUBIESAT-1 29 Mar 05:23:48 05:27:53 87° 65° (ENE) 05:32:21 437.475
PRISM 29 Mar 05:29:24 05:31:22 13° 60° (ENE) 05:33:30 437.425
JAS-2 29 Mar 05:37:37 05:45:32 78° 102° (ESE) 05:52:51 435.910
MOZHAYETS 4 29 Mar 05:47:11 05:51:29 36° 264° (W) 05:55:46
M-CUBED/EXP-1 PRIME 29 Mar 05:47:52 05:51:47 47° 256° (WSW) 05:56:04 437.505
CUBESAT XI-V 29 Mar 05:55:14 05:59:14 29° 66° (ENE) 06:03:18 437.345
AIST 1 29 Mar 06:02:07 06:05:53 26° 290° (WNW) 06:09:33
ITAMSAT 1 29 Mar 06:02:09 06:02:57 10° 308° (NW) 06:03:29 435.822/435.867
O/OREOS (USA 219) 29 Mar 06:03:25 06:07:41 36° 304° (NW) 06:11:56 437.305
SO-50 29 Mar 06:12:55 06:14:03 11° 252° (WSW) 06:14:54 436.795
ISS 29 Mar 06:15:48 06:18:38 28° 218° (SW) 06:21:26 145.825
HORYU 2 29 Mar 06:19:13 06:22:31 20° 298° (WNW) 06:25:43 437.375
STRAND 1 29 Mar 06:24:15 06:28:50 34° 66° (ENE) 06:33:29 437.568
Cubesat XI-IV 29 Mar 06:35:18 06:39:12 21° 90° (E) 06:43:15 437.490
CUTE-I 29 Mar 06:35:21 06:39:13 21° 90° (E) 06:43:14 437.470
